Total_Precipitation_Accumulation
0.05 0.19 0.54 1.42 3.50 2.00 2.68 1.74 1.98 1.11 0.40 0.22 0.12 0.16 0.28 0.35 0.70 0.92 0.20 0.36 0.19 0.26 0.36 1.14 1.57 1.23 1.19 0.87 0.82 0.77 0.78 0.65 0.75 0.66 0.66 0.64 0.42 0.42 0.63 0.59 0.63 0.64 0.55 0.44 0.49 0.65 0.65 0.49 0.39
0.10 0.49 1.30 3.76 3.11 3.35 3.94 2.21 2.28 1.25 0.55 0.40 0.17 0.13 0.13 0.11 0.17 0.06 0.16 0.23 0.07 0.07 0.36 0.41 1.22 1.22 1.03 0.83 0.74 0.68 0.87 0.89 1.11 0.83 0.66 0.57 0.78 0.66 0.58 0.42 0.61 0.72 0.71 0.73 0.70 0.64 0.59 0.50 0.65
0.15 1.27 3.52 4.13 1.99 2.81 2.41 2.77 3.05 1.27 0.58 0.39 0.32 0.31 0.20 0.21 0.08 0.06 0.10 0.10 0.09 0.13 0.26 0.27 0.74 0.83 0.71 0.80 0.81 0.68 0.74 0.78 0.88 0.88 0.78 0.76 0.73 0.70 0.59 0.64 0.61 0.82 0.79 0.71 0.76 0.63 0.72 0.74 1.01
0.33 3.29 4.45 3.75 3.34 2.69 1.50 1.60 1.58 2.04 1.11 0.80 0.48 0.31 0.22 0.21 0.02 0.03 0.08 0.11 0.10 0.27 0.15 0.25 0.46 0.53 0.60 0.67 0.52 0.57 0.65 0.69 0.79 0.82 0.67 0.66 0.79 0.88 0.96 1.16 0.94 0.78 0.59 0.47 0.44 0.48 0.62 0.69 0.80
0.56 3.02 4.08 4.08 3.06 1.76 1.23 1.44 2.81 3.59 1.96 1.44 0.45 0.25 0.18 0.10 0.01 0.01 0.03 0.07 0.13 0.63 0.12 0.20 0.80 0.58 0.64 0.66 0.79 0.79 0.66 0.62 0.79 0.90 0.88 0.78 0.75 0.69 1.03 0.82 0.84 0.62 0.27 0.25 0.27 0.31 0.55 0.65 1.02
1.46 2.92 3.62 3.59 1.67 0.97 1.53 1.81 2.19 2.07 1.36 0.60 0.39 0.17 0.18 0.07 0.03 0.02 0.08 0.12 0.28 0.24 0.09 0.15 0.64 0.75 0.71 0.64 0.83 0.71 0.62 0.69 0.78 0.84 1.07 0.87 1.19 0.99 0.94 0.65 0.36 0.11 0.05 0.12 0.13 0.46 0.68 0.91 0.83
1.65 4.38 3.38 2.37 1.62 1.82 1.53 1.46 1.44 1.54 0.83 0.41 0.37 0.10 0.14 0.09 0.07 0.06 0.16 0.16 0.14 0.10 0.15 0.16 0.26 0.52 0.58 0.76 0.85 0.66 0.51 0.62 0.62 0.73 0.93 0.78 0.67 0.61 0.62 0.38 0.18 0.07 0.11 0.21 0.23 0.37 0.50 0.66 0.47
1.03 3.15 4.55 2.69 1.16 2.52 1.49 1.22 1.35 1.12 0.75 0.26 0.18 0.09 0.06 0.04 0.17 0.27 0.30 0.24 0.36 0.33 0.24 0.16 0.23 0.33 0.36 0.54 0.82 0.47 0.43 0.54 0.57 0.68 0.89 0.76 0.36 0.43 0.46 0.46 0.33 0.16 0.15 0.16 0.23 0.35 0.46 0.62 0.55
1.46 4.84 3.93 2.28 0.81 2.25 1.25 1.23 1.04 0.82 0.29 0.23 0.24 0.08 0.00 0.00 0.05 0.09 0.07 0.19 0.27 0.41 0.22 0.27 0.30 0.34 0.85 0.66 0.74 0.78 0.81 0.74 0.78 0.90 1.16 1.69 0.64 0.80 0.89 0.50 0.22 0.16 0.19 0.17 0.24 0.26 0.45 0.46 0.32
2.30 4.06 2.29 1.12 0.33 0.79 1.95 1.32 1.07 0.73 0.43 0.28 0.19 0.06 0.01 0.01 0.01 0.03 0.02 0.05 0.16 0.20 0.45 0.37 0.17 0.16 0.35 0.46 0.63 0.82 0.64 0.63 0.74 0.69 0.84 1.26 0.58 0.52 0.37 0.38 0.34 0.29 0.32 0.40 0.45 0.43 0.59 1.00 0.46
2.01 3.58 1.74 0.46 0.38 0.40 1.22 1.00 0.65 0.77 0.46 0.21 0.09 0.05 0.01 0.00 0.00 0.02 0.02 0.02 0.04 0.08 0.11 0.32 0.11 0.25 0.29 0.36 0.21 0.42 0.39 0.19 0.35 0.49 0.60 0.98 0.50 0.41 0.55 0.58 1.07 0.59 0.49 0.77 0.76 0.42 0.43 1.04 0.43
0.85 0.91 1.37 1.08 0.77 0.37 0.91 2.04 0.63 1.47 1.59 0.33 0.18 0.02 0.00 0.00 0.00 0.01 0.00 0.02 0.03 0.04 0.07 0.13 0.12 0.30 0.54 0.38 0.32 0.21 0.11 0.06 0.21 0.26 0.18 0.29 0.35 0.46 0.72 0.78 1.02 0.84 0.75 1.31 0.60 0.23 0.19 0.29 0.23
0.58 0.68 0.95 1.09 0.39 0.40 0.60 0.96 0.82 1.00 0.71 0.35 0.25 0.04 0.01 0.01 0.01 0.02 0.01 0.03 0.02 0.02 0.05 0.08 0.05 0.24 0.42 0.49 0.21 0.28 0.11 0.06 0.04 0.08 0.17 0.41 0.34 0.42 0.61 0.54 0.81 0.62 0.53 1.09 0.31 0.23 0.14 0.04 0.03
0.41 0.62 1.05 1.45 1.06 0.74 0.67 0.82 0.57 0.65 0.43 0.43 0.28 0.03 0.00 0.01 0.00 0.01 0.02 0.02 0.03 0.02 0.00 0.03 0.04 0.13 0.30 0.62 0.36 0.15 0.16 0.02 0.02 0.13 0.23 0.41 0.32 0.55 0.63 0.65 0.40 0.35 0.39 0.36 0.28 0.25 0.35 0.02 0.00
0.32 0.62 1.07 1.45 1.82 1.73 1.15 1.91 1.28 0.67 0.57 0.37 0.16 0.02 0.00 0.00 0.00 0.00 0.00 0.00 0.00 0.00 0.00 0.00 0.02 0.09 0.14 0.25 0.20 0.09 0.17 0.06 0.05 0.10 0.32 0.46 0.42 0.59 0.75 0.54 0.45 0.50 0.40 0.26 0.28 0.17 0.28 0.03 0.01
0.53 0.64 1.32 2.16 2.07 2.28 1.54 2.81 2.19 1.47 1.72 0.30 0.11 0.01 0.00 0.00 0.00 0.00 0.00 0.00 0.00 0.00 0.00 0.00 0.00 0.02 0.09 0.11 0.07 0.09 0.06 0.09 0.06 0.21 0.13 0.25 0.47 0.51 0.64 0.59 0.54 0.59 0.96 0.40 0.31 0.22 0.11 0.01 0.01
0.70 0.75 1.02 2.70 2.72 2.82 2.16 2.97 2.84 1.36 1.10 0.34 0.13 0.04 0.00 0.01 0.00 0.00 0.00 0.00 0.00 0.00 0.00 0.01 0.00 0.01 0.05 0.05 0.10 0.15 0.09 0.14 0.17 0.23 0.30 0.25 0.28 0.46 1.04 0.83 0.62 0.42 0.43 0.35 0.20 0.18 0.05 0.01 0.00
0.42 0.82 0.88 1.62 3.10 2.97 2.53 2.76 2.74 1.67 1.27 0.85 0.29 0.10 0.03 0.01 0.00 0.00 0.00 0.00 0.00 0.00 0.00 0.00 0.01 0.00 0.07 0.19 0.31 0.23 0.18 0.20 0.17 0.18 0.41 0.44 0.38 0.54 0.86 0.73 0.79 0.48 0.51 0.46 0.41 0.12 0.02 0.03 0.01
0.39 0.72 1.26 1.38 2.18 3.36 2.92 2.21 2.58 1.25 0.89 1.15 0.54 0.17 0.07 0.01 0.01 0.01 0.00 0.00 0.00 0.00 0.00 0.00 0.02 0.08 0.13 0.14 0.10 0.12 0.21 0.12 0.16 0.28 0.36 0.48 0.43 0.42 0.58 0.69 0.71 0.93 0.84 0.87 0.31 0.12 0.03 0.01 0.00
0.11 0.37 1.39 1.61 2.00 1.93 2.71 2.03 2.02 1.93 0.99 0.75 0.75 0.27 0.11 0.04 0.01 0.00 0.00 0.00 0.01 0.00 0.00 0.00 0.07 0.14 0.13 0.08 0.14 0.15 0.13 0.12 0.21 0.38 0.44 0.22 0.32 0.41 0.35 0.65 0.47 0.67 0.62 0.45 0.37 0.47 0.30 0.55 0.04
0.13 0.14 0.88 1.93 1.83 1.90 1.68 2.24 1.74 1.85 1.77 0.93 0.92 0.51 0.32 0.05 0.06 0.01 0.00 0.00 0.02 0.01 0.00 0.00 0.06 0.16 0.15 0.20 0.18 0.49 0.58 0.65 0.78 0.54 0.31 0.16 0.22 0.24 0.40 0.49 0.65 0.67 0.62 0.59 0.32 0.18 0.24 0.49 0.08
0.16 0.16 0.41 1.18 1.44 1.47 1.36 1.42 1.56 1.24 1.61 1.93 1.26 0.43 0.22 0.11 0.08 0.07 0.00 0.01 0.01 0.01 0.00 0.00 0.02 0.17 0.16 0.16 0.23 0.50 0.60 0.61 0.49 0.39 0.55 0.35 0.14 0.14 0.20 0.29 0.36 0.51 1.16 1.12 0.40 0.28 0.21 0.21 0.39
0.04 0.07 0.25 0.66 0.98 0.94 0.80 0.76 0.72 1.12 1.22 1.72 1.34 0.39 0.28 0.22 0.12 0.11 0.02 0.03 0.04 0.00 0.00 0.00 0.00 0.15 0.15 0.22 0.57 0.34 0.20 0.44 0.43 0.42 1.01 0.54 0.28 0.12 0.17 0.26 0.38 0.26 0.39 0.39 0.37 0.29 0.18 0.16 0.25
0.02 0.06 0.09 0.33 1.00 0.60 0.25 0.35 0.35 0.70 0.81 1.06 0.91 0.63 0.36 0.13 0.15 0.16 0.09 0.06 0.04 0.01 0.00 0.00 0.00 0.04 0.12 0.19 0.18 0.32 0.45 0.61 1.01 1.17 0.97 0.40 0.22 0.16 0.12 0.15 0.30 0.32 0.45 0.43 0.25 0.23 0.12 0.09 0.14
0.01 0.02 0.16 0.24 0.52 0.44 0.12 0.16 0.30 0.13 0.65 0.76 0.67 0.58 0.40 0.25 0.24 0.18 0.11 0.13 0.10 0.02 0.00 0.00 0.00 0.01 0.04 0.11 0.08 0.17 0.29 0.48 0.81 1.11 0.50 0.46 0.57 0.59 0.33 0.42 0.61 0.28 0.21 0.26 0.24 0.37 0.29 0.12 0.14
0.01 0.01 0.02 0.05 0.11 0.23 0.20 0.36 0.14 0.05 0.15 0.25 0.27 0.24 0.53 0.37 0.36 0.39 0.26 0.30 0.38 0.18 0.02 0.06 0.02 0.02 0.01 0.08 0.07 0.13 0.22 0.21 0.32 0.46 0.69 0.69 0.73 0.80 0.46 0.50 0.46 0.36 0.22 0.16 0.26 0.23 0.10 0.08 0.10
0.02 0.01 0.03 0.04 0.07 0.12 0.30 0.46 0.15 0.14 0.22 0.08 0.14 0.19 0.34 0.64 0.76 0.53 0.30 0.45 0.89 0.58 0.28 0.07 0.08 0.07 0.06 0.04 0.07 0.17 0.20 0.16 0.16 0.43 0.59 0.51 0.66 0.83 0.95 0.47 0.37 0.30 0.27 0.16 0.19 0.11 0.15 0.21 0.23
0.00 0.06 0.07 0.06 0.08 0.08 0.27 0.78 0.43 0.15 0.12 0.15 0.14 0.19 0.17 0.67 1.61 1.81 1.38 0.73 0.85 1.36 1.17 0.75 0.24 0.15 0.22 0.08 0.12 0.25 0.16 0.16 0.22 0.28 0.44 0.57 0.73 1.88 1.70 0.81 0.45 0.39 0.31 0.35 0.30 0.10 0.07 0.12 0.10
0.00 0.02 0.05 0.04 0.03 0.03 0.14 0.29 0.27 0.26 0.13 0.08 0.12 0.23 0.28 0.43 1.41 2.71 2.72 2.30 1.37 1.69 1.14 1.79 0.99 0.76 0.70 0.57 0.50 0.62 0.33 0.16 0.17 0.23 0.36 0.53 0.64 0.76 0.85 1.33 0.62 0.69 0.60 0.47 0.54 0.42 0.30 0.33 0.22
0.00 0.00 0.00 0.02 0.01 0.02 0.03 0.20 0.26 0.38 0.19 0.10 0.27 0.31 0.31 0.47 0.84 1.59 2.29 2.52 1.96 1.76 1.33 1.46 2.10 1.50 1.32 1.26 1.42 0.94 0.94 0.77 0.46 0.32 0.31 0.44 0.56 0.59 0.70 0.70 0.91 0.94 0.63 0.86 0.69 0.61 0.55 0.56 0.39